| time (UTC) | temp C | wind direction | speed KPH | gust KPH | rain 1hr cm | rain 24hr cm | rain mn cm | humidity % | barometer mb |
| 20260509005529 | 2 | 230 | 1.6 | 6.4 | 0.00 | 0.00 | 0.00 | 91 | 1022.1 |
| 20260509004529 | 1 | 213 | 1.6 | 8.0 | 0.00 | 0.00 | 0.00 | 91 | 1022.0 |
| 20260509003529 | 1 | 255 | 1.6 | 6.4 | 0.00 | 0.00 | 0.00 | 91 | 1021.9 |
| 20260509002529 | 2 | 255 | 1.6 | 4.8 | 0.00 | 0.00 | 0.00 | 90 | 1021.7 |
| 20260509001529 | 2 | 241 | 1.6 | 4.8 | 0.00 | 0.00 | 0.00 | 90 | 1021.7 |
| 20260509000529 | 2 | 290 | 1.6 | 6.4 | 0.00 | 0.00 | 0.00 | 91 | 1021.7 |
| 20260508235529 | 2 | 299 | 1.6 | 4.8 | 0.00 | 0.00 | 0.00 | 90 | 1021.7 |
| 20260508234529 | 2 | 41 | 1.6 | 4.8 | 0.00 | 0.00 | 0.00 | 89 | 1021.6 |
| 20260508233529 | 2 | 104 | 3.2 | 6.4 | 0.00 | 0.00 | 0.00 | 89 | 1021.5 |
| 20260508232529 | 2 | 70 | 1.6 | 4.8 | 0.00 | 0.00 | 0.00 | 89 | 1021.4 |
| 20260508231529 | 2 | 261 | 1.6 | 6.4 | 0.00 | 0.00 | 0.00 | 90 | 1021.4 |
| 20260508230529 | 2 | 126 | 0.0 | 3.2 | 0.00 | 0.00 | 0.00 | 88 | 1021.3 |
| 20260508225529 | 2 | 299 | 0.0 | 3.2 | 0.00 | 0.00 | 0.00 | 86 | 1021.4 |
| 20260508224529 | 3 | 110 | 0.0 | 3.2 | 0.00 | 0.00 | 0.00 | 85 | 1021.3 |
| 20260508223529 | 3 | 97 | 0.0 | 6.4 | 0.00 | 0.00 | 0.00 | 84 | 1021.2 |
| 20260508222529 | 3 | 290 | 1.6 | 8.0 | 0.00 | 0.00 | 0.00 | 85 | 1021.1 |
| 20260508221529 | 3 | 273 | 3.2 | 8.0 | 0.00 | 0.00 | 0.00 | 84 | 1021.0 |
| 20260508220529 | 4 | 282 | 1.6 | 8.0 | 0.00 | 0.00 | 0.00 | 83 | 1020.9 |
| 20260508215529 | 4 | 256 | 3.2 | 8.0 | 0.00 | 0.00 | 0.00 | 82 | 1020.9 |
| 20260508214529 | 4 | 293 | 1.6 | 9.7 | 0.00 | 0.00 | 0.00 | 82 | 1020.7 |
| 20260508213529 | 5 | 286 | 3.2 | 11.3 | 0.00 | 0.00 | 0.00 | 80 | 1020.5 |
| 20260508212529 | 5 | 277 | 4.8 | 11.3 | 0.00 | 0.00 | 0.00 | 79 | 1020.4 |
| 20260508211529 | 5 | 296 | 4.8 | 14.5 | 0.00 | 0.00 | 0.00 | 78 | 1020.2 |
| 20260508210529 | 5 | 285 | 4.8 | 14.5 | 0.00 | 0.00 | 0.00 | 77 | 1020.1 |
| 20260508205529 | 5 | 288 | 4.8 | 11.3 | 0.00 | 0.00 | 0.00 | 76 | 1020.1 |
| 20260508204529 | 5 | 299 | 4.8 | 11.3 | 0.00 | 0.00 | 0.00 | 75 | 1020.0 |